Location: Tamazert
(32.6352°N, 5.2072°W)
Time: 15:08:48
(UTC+00:00)

Vanguard 3 - Pass Details

Date: 12 October 2022
Orbit: 509 x 3255 km, 33.3° (Epoch: 08 December)

Event Time Altitude Azimuth Distance (km) Brightness Sun altitude
Rises 04:45:07 0° 232° (SW) 3,714 - -21.3°
Reaches altitude 10° 04:48:27 10° 224° (SW) 2,402 - -20.6°
Exits shadow 04:50:52 22° 208° (SSW) 1,528 8.3 -20.1°
Maximum altitude 04:53:09 33° 160° (SSE) 1,039 7.8 -19.6°
Drops below altitude 10° 04:56:40 10° 94° (E) 1,781 10.2 -18.8°
Sets 04:58:47 0° 84° (E) 2,610 11.5 -18.4°
